Fleming-Mason (FGX)

 

Airport Diagram
No Airport Diagram Available
Current Weather/Forecast (VFR Conditions)
METAR KFGX 191915Z AUTO 30009G17KT 10SM BKN085 17/04 A2992 RMK AO2 T01720035
TAF

Airport Information

All Charts
General
Chart Name View
TAKEOFF MINIMUMS
ALTERNATE MINIMUMS
TAKEOFF MINIMUMS
ALTERNATE MINIMUMS

Approaches
Chart Name Download
RNAV (GPS) RWY 07
RNAV (GPS) RWY 25
VOR/DME-A
RNAV (GPS) RWY 07
RNAV (GPS) RWY 25
VOR/DME-A


Airport Statistics
Departures Arrivals Local
All Collected Stats since June 2016: 5 5 0
2021 Stats: 0 1 0
April Stats: 0 0 0

Inbound Traffic (Arrivals) - 0

No inbound traffic.


Outbound Traffic (Departures) - 0

No outbound traffic.


Local Traffic (Pattern) - 0

No local traffic.